Location: Pisa
(43.7170°N, 10.3830°E)
Time: 19:56:14
(UTC+02:00)

ISS - Pass Details

Date: 11 May 2021
Orbit: 417 x 422 km, 51.6° (Epoch: 13 June)

Event Time Altitude Azimuth Distance (km) Brightness Sun altitude
Rises 05:12:03 0° 303° (WNW) 2,375 -0.2 -8.0°
Reaches altitude 10° 05:14:12 10° 309° (NW) 1,509 -1.1 -7.6°
Maximum altitude 05:17:31 51° 26° (NNE) 538 -2.8 -7.1°
Drops below altitude 10° 05:20:49 10° 104° (ESE) 1,505 -0.3 -6.6°
Sets 05:22:57 0° 110° (ESE) 2,367 0.7 -6.3°
